GFSGL_925_spd_021.txt.gz
Wind_Speed
19 18 14 13 13 11 9 9 10 8 13 7 5 4 2 1 2 2 3 4 6 4 3 6 4 2 3 5 10 17 21 24 12 11 17 27 32 34 34 42 50 45 40
19 16 15 14 12 11 9 10 12 9 11 7 5 6 2 2 2 1 2 8 5 4 4 4 2 2 5 10 17 24 28 25 29 18 23 22 33 38 39 36 39 40 37
20 17 15 17 13 10 12 11 12 11 8 5 2 9 4 3 3 3 2 5 7 3 4 3 7 8 11 18 22 25 26 28 27 29 22 25 32 40 38 35 38 38 34
17 20 19 15 12 13 13 12 14 10 6 3 9 8 7 7 4 3 1 2 4 7 4 6 8 11 17 26 27 27 29 30 28 29 26 30 30 31 35 33 32 35 32
23 23 19 14 15 15 12 12 10 10 7 7 10 11 10 4 9 8 8 6 11 10 9 11 14 15 18 23 30 29 30 29 29 30 23 30 29 28 26 28 29 26 27
25 23 20 18 16 12 12 11 10 8 11 10 9 13 8 7 7 8 9 9 11 11 14 14 17 18 19 17 27 30 35 29 27 25 23 24 26 27 31 30 29 24 11
24 22 22 15 16 14 12 13 10 10 9 11 10 9 7 6 6 8 10 11 14 13 16 22 21 20 24 27 29 32 25 34 36 36 28 27 29 33 33 28 23 19 18
18 21 21 21 18 15 14 14 11 10 9 9 12 9 7 7 7 7 12 14 17 16 16 22 26 25 30 33 34 29 28 31 32 30 38 38 41 38 34 34 27 21 26
20 24 25 22 18 16 14 13 10 9 10 10 11 9 7 9 8 9 14 16 16 18 20 22 26 29 30 32 34 30 29 27 29 29 32 33 36 36 35 33 24 26 19
25 26 26 21 18 19 13 12 8 8 10 13 15 10 8 12 9 10 14 19 20 20 19 22 25 29 30 31 34 32 25 27 27 27 27 30 30 29 34 25 26 25 21
29 30 27 24 16 18 16 12 10 11 15 17 17 12 10 11 8 12 16 21 22 23 23 24 25 26 26 27 30 29 29 29 27 26 25 28 28 25 22 21 17 24 26
29 30 27 23 22 19 15 13 15 17 19 18 18 14 11 11 10 14 13 19 21 23 23 26 25 24 24 24 26 23 26 30 26 26 22 23 24 25 19 22 14 19 21
31 31 32 29 25 20 17 20 18 19 21 21 20 16 13 13 14 13 15 18 19 21 23 24 22 22 23 23 22 25 27 27 27 26 20 20 23 24 20 19 15 14 17
29 34 31 29 25 21 18 18 19 19 20 21 20 19 16 15 15 14 16 21 20 24 22 21 21 23 22 23 24 30 29 31 32 30 26 22 19 22 23 19 18 17 18
32 32 29 30 29 24 19 17 17 19 22 25 24 24 24 20 19 20 24 23 25 27 26 23 22 22 19 29 33 32 30 32 29 29 29 26 23 24 25 25 23 17 16
28 27 28 29 29 28 22 11 13 12 18 21 22 25 20 20 25 23 20 22 24 26 26 24 23 24 26 30 29 31 31 31 29 28 28 27 28 28 28 26 27 26 25
27 28 30 28 30 26 21 18 19 15 18 22 20 22 23 22 26 28 23 22 24 24 23 21 21 24 28 31 31 30 29 33 28 29 31 31 31 32 31 31 30 28 28
32 34 32 28 28 25 25 23 22 24 19 16 18 27 26 24 28 31 26 24 27 24 23 22 20 23 28 29 30 32 32 29 27 28 33 36 36 33 34 29 32 33 30
33 33 31 30 27 30 26 27 27 25 24 21 19 21 30 28 31 35 28 28 32 30 26 25 23 23 26 30 31 31 29 25 24 25 19 33 39 38 35 34 34 36 32
35 34 32 29 29 30 30 27 26 26 26 27 27 30 34 32 34 35 34 33 33 32 34 31 29 24 29 30 30 35 34 32 32 30 29 27 31 35 35 35 36 36 36
31 33 34 28 30 27 31 28 31 26 25 25 31 35 38 39 34 37 37 36 34 34 36 36 36 33 30 26 35 33 33 36 36 36 38 37 36 33 36 36 34 34 35
32 33 34 31 27 27 27 34 29 30 29 27 27 35 39 40 37 37 39 41 42 39 36 35 35 37 37 34 31 32 39 38 36 34 37 40 41 40 36 32 34 34 31
25 30 31 32 31 31 25 31 35 30 32 32 30 31 43 41 35 37 40 43 44 43 44 39 34 36 36 35 36 37 34 38 41 39 39 37 36 37 37 37 33 29 27
14 19 25 28 29 30 30 26 33 36 33 33 31 37 43 45 39 38 41 43 44 46 45 46 48 44 40 35 37 38 36 37 35 34 37 38 37 38 37 36 36 34 31
22 19 13 24 28 31 28 33 31 34 36 34 35 33 39 42 42 42 41 42 42 42 43 42 42 42 45 50 47 41 37 34 37 40 38 37 37 37 37 38 36 34 32
22 22 20 16 16 29 31 29 33 35 37 36 37 37 36 39 42 42 40 41 40 41 41 43 43 42 41 41 40 42 45 41 38 36 35 36 37 37 37 38 37 37 34

GFSGL_925_spd_024.txt.gz
Wind_Speed
23 21 20 17 13 12 10 11 12 12 10 9 5 4 3 2 3 4 6 7 8 6 6 7 9 8 9 10 12 21 21 21 9 7 12 18 24 26 30 40 43 42 47
22 21 20 19 17 15 12 12 11 11 11 7 6 6 5 3 2 3 8 7 7 7 7 8 6 5 8 10 15 18 25 21 24 15 16 18 26 30 34 39 39 43 39
21 18 19 17 17 13 13 13 12 9 10 7 5 6 5 2 1 5 5 5 10 5 6 7 8 9 10 15 19 22 25 26 24 24 17 25 28 36 33 37 38 40 38
22 20 18 19 16 14 13 10 11 10 7 4 6 8 5 3 3 4 4 5 13 9 5 6 10 13 16 22 23 24 28 28 28 26 24 27 28 28 38 39 29 34 33
20 21 20 17 14 15 14 11 10 9 6 6 10 10 6 3 5 5 2 8 13 9 7 8 14 13 13 21 30 27 31 29 26 27 24 24 28 30 31 30 29 29 30
20 19 21 17 16 16 12 13 10 9 7 10 12 11 5 4 4 4 5 10 10 12 12 18 21 19 20 22 28 34 33 35 29 24 26 26 24 26 32 32 29 23 8
21 20 21 20 17 14 14 11 9 7 9 11 13 9 5 4 4 5 7 9 10 12 16 18 20 20 21 23 28 30 33 29 30 36 32 28 31 33 33 29 27 19 18
21 20 24 20 18 15 13 12 11 10 9 11 11 8 4 4 4 6 9 11 13 14 17 17 20 20 22 27 28 30 31 29 27 27 32 31 34 35 33 32 27 23 23
20 22 22 20 19 16 15 15 12 11 11 12 11 8 5 6 5 9 12 13 14 16 18 18 23 27 28 30 32 29 27 24 27 28 32 35 35 36 33 32 26 27 16
21 25 25 23 20 17 14 13 10 10 10 12 11 7 6 8 8 10 13 15 17 18 17 19 22 27 28 29 31 31 26 24 25 26 25 28 31 29 33 32 32 25 18
26 29 26 23 20 17 14 12 9 8 11 13 13 8 8 8 7 11 14 16 20 20 19 21 24 25 26 26 29 33 30 29 25 28 30 29 28 32 27 21 25 30 26
26 31 28 25 23 20 17 13 11 11 13 15 14 10 8 7 10 12 14 14 18 22 22 23 26 24 24 26 25 28 28 25 26 28 30 27 29 31 25 16 19 20 21
29 31 29 25 23 20 17 15 16 16 17 15 14 13 11 9 13 13 15 16 15 20 21 22 24 23 22 22 22 26 26 25 29 28 29 29 29 29 22 18 12 13 20
30 30 30 27 23 19 17 17 18 18 17 17 15 13 13 13 14 15 17 17 15 20 22 22 22 21 20 22 22 23 27 27 29 30 30 29 26 23 21 18 16 14 15
31 31 30 28 25 22 18 20 19 18 20 21 19 18 19 16 15 15 20 20 23 25 24 22 22 22 20 24 25 25 27 29 28 26 24 22 21 21 22 20 19 17 18
24 26 27 29 25 23 20 16 15 16 19 19 16 18 18 17 18 18 19 18 24 26 26 26 24 21 22 21 19 26 24 26 29 26 21 20 22 21 23 23 24 24 24
26 25 27 27 27 25 20 17 13 11 14 21 18 17 15 18 21 20 20 21 24 25 23 25 24 23 22 24 26 28 28 30 29 26 26 26 25 25 26 28 28 28 27
31 35 33 28 26 27 26 20 19 16 13 19 19 21 17 18 25 23 22 24 26 24 22 25 24 25 25 27 28 31 30 30 30 29 27 28 29 30 29 28 27 31 30
34 32 30 31 30 30 30 26 25 23 21 20 18 25 23 20 26 26 25 29 29 28 26 26 25 26 28 29 30 31 31 32 32 33 32 30 32 32 30 31 29 31 32
34 36 35 34 31 31 29 27 25 26 24 23 23 28 27 26 29 31 31 30 31 31 31 31 29 27 27 29 32 33 33 33 33 34 34 32 32 36 34 35 33 31 38
29 38 39 32 33 32 31 27 28 25 26 28 30 30 34 38 36 38 39 37 35 34 35 35 34 33 31 30 32 34 35 36 37 36 35 35 34 33 35 38 40 39 34
26 33 36 32 31 30 30 31 30 28 27 28 31 33 35 38 35 37 41 42 42 40 39 38 38 38 37 36 33 32 38 40 40 41 40 40 38 36 36 38 40 37 38
19 22 27 28 27 30 33 32 29 30 28 30 31 31 37 42 35 38 41 44 45 44 43 42 41 42 43 43 42 42 40 36 39 41 41 42 42 42 42 41 40 36 36
17 5 21 23 23 28 30 31 34 32 32 31 31 31 38 44 40 41 44 45 45 46 46 46 47 47 46 46 46 46 46 45 43 41 35 41 45 44 43 42 40 41 41
25 24 18 5 23 26 27 29 32 32 33 33 32 33 39 42 43 41 43 44 44 44 46 48 49 49 49 49 48 46 44 43 43 41 38 41 41 40 43 44 42 40 39
23 21 21 19 23 4 17 21 27 31 34 33 35 38 41 43 45 45 45 44 45 46 46 46 47 47 46 47 48 50 51 49 46 42 38 39 41 41 42 42 42 42 41

GFSGL_925_spd_030.txt.gz
Wind_Speed
25 25 24 22 21 20 18 15 13 12 12 12 9 7 4 3 3 5 6 6 8 6 9 8 8 8 9 11 14 15 9 8 6 5 8 11 12 14 15 19 27 31 37
27 26 24 21 19 17 14 13 12 14 12 10 8 4 2 3 5 5 6 9 12 13 9 7 5 8 8 10 13 16 16 11 12 10 13 12 20 23 29 32 34 36 41
27 26 22 19 16 15 14 13 14 12 11 8 5 3 3 4 5 7 10 11 13 14 12 9 8 8 9 11 11 14 18 16 19 16 11 18 21 29 32 33 35 35 38
25 22 19 18 15 14 13 14 12 12 9 5 4 6 2 1 5 8 6 10 13 11 7 8 9 10 10 11 13 17 23 21 20 21 20 21 23 27 33 31 28 37 36
22 19 17 15 14 13 14 13 12 9 6 7 11 6 2 2 6 6 5 7 11 8 6 6 9 9 7 10 19 25 28 25 23 21 20 20 22 23 29 28 29 32 31
20 16 15 16 15 15 13 12 12 9 8 9 8 6 3 4 6 6 8 11 10 7 5 7 9 9 11 13 18 26 27 30 27 21 23 21 20 23 31 33 36 28 10
15 14 14 16 16 16 14 13 10 8 9 9 8 4 3 4 6 7 8 8 9 9 11 13 12 12 13 17 22 23 25 23 26 30 27 26 26 32 33 29 29 21 16
15 15 16 16 17 15 14 11 9 7 9 10 8 4 2 5 5 7 8 10 11 10 10 12 16 17 18 23 25 24 23 21 25 24 27 28 32 33 35 31 31 25 25
14 17 18 18 17 15 14 11 9 9 10 10 7 5 3 5 7 9 11 11 11 10 10 12 14 16 23 27 31 31 29 26 24 27 30 34 37 38 37 35 27 27 14
16 19 20 19 17 16 14 13 11 10 9 9 9 5 4 6 8 8 11 12 13 13 13 11 12 20 27 30 32 33 29 30 30 32 31 34 35 34 32 29 31 23 17
15 19 20 17 16 14 13 12 10 11 11 11 9 7 6 5 8 8 11 13 15 16 19 19 22 23 27 29 30 31 31 33 34 34 33 32 28 28 27 23 26 30 21
16 18 18 17 15 12 11 11 10 11 13 12 11 9 7 6 8 10 9 13 14 19 21 22 23 22 26 27 27 29 32 34 32 30 28 27 28 24 21 19 22 22 9
18 19 18 16 14 12 13 12 11 12 14 12 9 7 6 6 9 10 12 14 14 19 22 22 21 19 21 22 26 30 32 31 29 26 24 27 27 22 17 16 16 19 13
19 19 17 16 13 12 11 10 10 11 12 10 7 7 7 8 11 12 15 15 16 20 23 21 19 19 20 26 27 26 27 30 31 28 26 26 24 19 18 18 17 18 17
21 21 18 15 14 13 9 8 8 8 8 11 9 10 12 10 13 14 16 18 20 24 25 22 20 21 25 23 19 19 22 26 24 23 24 25 23 23 19 17 15 15 9
20 21 21 18 16 14 12 9 7 5 6 4 4 7 9 8 12 13 14 17 20 24 22 19 17 19 18 20 16 16 17 21 22 24 23 24 24 24 21 17 15 14 13
24 23 22 20 18 16 13 12 10 6 6 6 5 5 6 10 11 12 14 18 22 23 19 17 17 19 17 18 16 13 16 19 20 22 24 24 25 23 25 20 19 17 16
23 24 26 24 22 19 17 14 11 10 7 7 10 8 8 9 11 14 15 20 22 21 19 18 18 20 20 17 17 16 16 20 20 20 23 24 25 22 21 18 18 19 18
23 22 25 26 24 22 18 15 12 9 6 9 13 12 12 11 12 14 16 22 19 17 18 18 21 22 20 19 21 18 21 24 25 24 24 26 25 23 19 18 18 22 20
24 24 26 26 25 22 19 17 14 11 8 10 13 15 17 16 18 19 20 20 21 22 21 19 21 22 22 22 22 23 22 24 26 28 27 26 25 23 20 20 19 19 22
24 23 24 24 25 25 24 22 20 15 13 12 14 17 20 22 22 24 24 24 23 23 24 24 23 24 23 22 20 21 22 23 26 25 24 26 26 24 27 25 23 22 22
17 20 22 23 22 23 25 25 24 21 18 16 15 14 16 23 20 22 24 26 27 26 26 26 26 26 26 26 26 27 27 28 30 31 32 32 32 33 31 29 27 27 27
11 14 17 21 20 19 20 24 25 25 24 23 21 18 18 21 24 24 26 27 28 29 30 30 30 31 30 30 30 30 31 32 33 33 34 35 35 35 35 32 31 29 28
20 10 4 8 13 14 16 20 22 23 25 24 24 23 23 24 25 27 29 29 29 30 31 32 33 34 34 35 36 36 36 36 36 36 35 36 37 38 38 35 33 33 32
25 22 23 20 15 1 5 9 12 15 17 18 20 21 23 23 24 27 29 30 31 32 33 34 35 36 36 37 38 39 40 39 41 42 43 43 42 41 39 36 34 32 33
25 25 25 29 28 25 23 21 20 19 16 14 10 9 13 18 21 23 25 26 29 31 33 35 37 38 38 39 40 41 42 42 43 43 44 42 43 41 36 37 36 33 32

GFSGL_925_spd_033.txt.gz
Wind_Speed
20 19 19 17 17 17 17 16 15 14 12 12 11 10 8 7 7 8 8 8 9 7 9 11 11 10 10 11 11 12 8 8 7 6 7 10 8 8 9 11 17 25 29
21 21 21 20 19 18 16 14 13 13 13 12 10 8 7 5 5 6 7 9 13 10 13 9 9 10 10 11 13 14 9 7 9 13 13 12 14 17 19 24 27 30 39
21 21 19 17 16 15 14 13 13 14 13 11 8 5 4 4 3 5 8 11 15 16 16 11 8 10 11 10 12 14 13 9 12 17 11 16 17 25 29 30 32 36 38
21 20 18 15 14 14 13 14 14 13 12 9 5 4 3 1 3 5 5 8 12 12 13 12 9 10 9 11 11 13 17 16 17 19 18 18 17 23 29 32 29 35 35
19 17 15 14 14 13 13 13 12 11 8 6 8 5 3 2 4 3 3 7 13 12 9 9 9 9 10 11 12 17 21 19 21 19 17 18 19 18 24 27 30 32 29
16 15 14 13 12 13 13 13 11 9 7 10 9 5 4 3 4 5 7 9 10 10 8 8 8 8 9 9 12 17 20 26 23 21 16 22 18 24 29 33 32 28 10
14 13 12 12 12 12 12 13 11 8 10 10 8 5 4 3 4 6 7 7 6 7 9 12 13 12 13 14 18 21 21 20 21 24 24 22 25 32 33 30 27 22 20
12 11 11 12 13 13 14 12 10 10 10 11 7 5 4 4 4 5 8 8 8 8 12 15 16 16 16 20 23 21 20 20 21 18 22 25 27 31 34 33 28 27 27
11 10 12 13 15 14 13 10 10 10 11 8 6 5 4 6 6 7 8 8 8 8 9 13 19 19 20 23 27 29 24 22 20 21 24 29 33 37 42 40 29 26 16
10 11 13 14 13 13 13 10 9 9 9 7 7 4 5 7 7 7 7 9 11 11 12 13 15 22 24 25 26 24 25 25 28 27 26 30 33 36 37 28 29 24 20
8 13 14 13 13 12 11 9 9 9 9 7 7 5 5 8 7 7 7 10 12 10 11 13 19 25 24 25 25 23 25 26 31 33 33 31 32 30 26 17 17 16 17
10 14 14 13 11 11 11 9 7 8 9 8 7 5 5 8 9 8 8 10 13 12 12 17 22 26 27 27 26 25 28 30 28 28 25 23 21 21 15 13 14 14 5
12 15 14 13 11 10 10 9 7 7 8 7 7 6 5 8 10 10 11 12 14 14 15 19 21 23 23 23 25 27 30 24 24 24 22 19 18 16 15 14 17 14 8
13 17 14 12 11 9 7 7 7 9 8 8 7 7 6 8 12 15 14 14 16 19 19 20 20 19 20 27 29 25 18 21 24 23 19 18 16 15 15 14 15 14 8
14 17 14 11 10 10 7 6 5 6 6 8 8 9 10 9 13 16 15 15 18 19 22 18 15 17 22 18 15 13 16 17 19 20 18 18 18 16 15 14 13 14 12
15 14 13 12 10 9 9 8 8 7 7 6 7 9 8 9 15 15 15 18 21 24 16 14 14 15 16 15 14 15 17 17 16 16 16 18 18 16 16 15 13 13 13
16 15 13 12 11 10 10 10 10 8 8 8 9 9 9 13 15 15 16 19 23 22 15 14 15 13 14 14 14 14 16 16 14 15 16 17 16 17 16 14 14 13 13
15 17 15 14 12 11 10 10 9 10 9 9 10 11 11 13 14 16 17 21 22 12 12 13 13 13 13 13 14 14 13 14 15 16 16 17 17 18 17 16 15 15 14
15 13 14 13 12 11 9 9 8 7 7 10 11 12 13 15 15 16 19 17 16 14 12 11 11 13 14 14 14 14 14 15 16 16 16 17 18 18 18 17 16 16 15
13 14 15 14 13 14 11 10 9 7 7 10 12 12 17 19 17 21 18 13 13 13 15 15 15 16 16 16 15 14 13 14 15 16 16 17 18 19 19 19 19 18 18
12 10 13 10 12 14 14 13 11 9 8 8 10 13 19 13 13 15 16 15 15 15 15 14 14 15 16 16 15 16 17 17 18 19 18 19 20 21 21 21 21 21 21
12 10 11 10 9 11 13 13 12 11 9 8 7 9 15 13 10 12 15 15 15 14 15 16 16 16 17 17 18 18 19 20 21 22 23 24 24 24 24 25 25 25 25
8 9 9 9 7 6 8 9 10 10 10 9 8 8 14 13 11 12 13 13 14 15 15 16 17 17 18 19 19 20 20 21 22 22 23 23 24 25 25 27 27 27 27
8 6 5 6 6 5 3 3 4 5 5 5 5 6 6 8 9 10 10 10 11 13 14 16 18 20 20 21 21 22 23 23 22 23 25 25 27 28 29 29 30 30 30
15 19 14 11 11 10 10 9 7 6 5 4 2 0 2 3 4 6 7 8 9 11 13 14 16 18 20 23 22 23 24 28 29 26 24 26 28 29 30 31 31 31 32
28 27 18 25 21 20 21 21 21 21 18 16 15 13 12 11 10 9 8 7 6 7 8 9 11 13 15 17 19 23 26 30 32 33 32 30 31 31 33 34 36 35 34